Kosmos-1523

operational
NORAD ID: 14612 Int'l Des: 1984-001 Owner: GUKOS Country: SU
LEOCIRCULAR

About Kosmos-1523

Description loading...

Live Position

Loading 3D Globe...

Upcoming Passes

Altitude History

Altitude vs Time

uPlot chart will show altitude changes over time

Two-Line Element Set

1 14612U 84001B 25278.50634582 .00000024 00000-0 23684-3 0 9996
2 14612 74.0053 317.2987 0042310 242.0182 231.2175 12.58651694918243
Epoch: Oct 5, 2025 • Age: 16 hours

Current Status

Altitude 1412.1 km
Velocity 7.16 km/s
Sub-Earth Point -8.59°S, 66.61°E
Launch Date Jan 5, 1984
Age 41.7 years
Type other

Technical Details

Classification Payload
Mass 60.00 kg
Dry Mass 60.00 kg
Total Mass 60.00 kg
Length 0.80 m
Diameter 0.80 m
Span 0.80 m
Shape Poly
Manufacturer NPOPM
Bus Type Strela-1 11F625
Phase Status In Orbit
Owner/State GUKOS/SU

Large Constellations

Loading constellations...